Regional Weather Roundup
Issued by NWS Upton, NY

Current Version | Previous Version | Text Only | Print | Product List | Glossary Off
Versions: 1 2 3 4 5 6 7 8 9 10 11 12 13 14 15 16 17 18 19 20 21 22 23 24 25 26 27 28 29 30 31 32 33 34 35
000 ASUS41 KOKX 191804 RWROKX REGIONAL WEATHER ROUNDUP NATIONAL WEATHER SERVICE NEW YORK NY 100 PM EST SUN NOV 19 2017 NOTE: "FAIR" INDICATES FEW OR NO CLOUDS BELOW 12,000 FEET WITH NO SIGNIFICANT WEATHER AND/OR OBSTRUCTIONS TO VISIBILITY. NYZ071-072-176-178-NJZ106-104-191900- NEW YORK CITY METRO AREA CITY SKY/WX TMP DP RH WIND PRES REMARKS Central Park MOSUNNY 50 28 42 NW12G28 29.52R Bronx Bot Gard NOT AVBL LaGuardia APRT PTSUNNY 51 32 48 NW28G37 29.49R Kennedy INTL PTSUNNY 52 32 46 NW21G36 29.50R Breezy Point NOT AVBL Newark/Liberty PTSUNNY 53 29 39 W29G40 29.51R Teterboro MOSUNNY 50 30 46 NW29G41 29.50R $$ NYZ177-179-078>081-191900- LONG ISLAND NEW YORK CITY SKY/WX TMP DP RH WIND PRES REMARKS Jones Beach NOT AVBL Matinecock PT NOT AVBL Farmingdale MOSUNNY 49 30 48 NW23G41 29.48R MacArthur/ISP MOSUNNY 50 32 50 NW28G38 29.45R Shirley PTSUNNY 51 34 52 W30G38 29.44R Mt Sinai Harb NOT AVBL Westhampton SUNNY 50 31 48 W30G43 29.42R East Hampton FAIR 50 33 50 W25G36 29.38R Southold NOT AVBL Montauk NOT AVBL $$ NYZ052-065-067-191900- HUDSON VALLEY CITY SKY/WX TMP DP RH WIND PRES REMARKS White Plains PTSUNNY 46 30 53 NW24G41 29.47R Larchmont Harb NOT AVBL Croton On Huds NOT AVBL Newburgh PTSUNNY 43 32 65 NW21G35 30.51R Montgomery CLOUDY 44 29 55 NW23G41 29.51R Poughkeepsie PTSUNNY 46 27 47 W23G35 29.48R Albany PTSUNNY 40 25 55 W26G40 29.46R WCI 29 $$ NJZ001-105-106-008-010-013-015-019>022-104-191900- NEW JERSEY CITY SKY/WX TMP DP RH WIND PRES REMARKS Newark/Liberty PTSUNNY 53 29 39 W29G40 29.51R Teterboro MOSUNNY 50 30 46 NW29G41 29.50R Caldwell MOSUNNY 48 30 49 NW20G36 29.53R Somerville CLOUDY 51 32 48 W12G28 29.53R Linden MOCLDY 52 31 43 NW26G32 29.52R Perth Amboy NOT AVBL Sussex CLOUDY 45 30 55 W18G28 29.54R Andover NOT AVBL Trenton PTSUNNY 51 30 44 W18G32 29.56R Millville PTSUNNY 56 34 43 W22G37 29.61R Atlantic City SUNNY 54 34 46 NW30G37 29.56S Wrightstown MOSUNNY 53 32 44 NW24G36 29.53R Toms River SUNNY 54 33 45 NW24G35 29.54S Belmar PTSUNNY 52 32 46 W25G38 29.52S $$ PAZ047>061-062-071-191900- EASTERN PENNSYLVANIA CITY SKY/WX TMP DP RH WIND PRES REMARKS Philadelphia PTSUNNY 53 30 41 W24G31 29.61R Allentown PTSUNNY 51 32 48 W22G31 29.57S Scranton CLOUDY 42 27 55 NW16G26 29.59R $$ CTZ002-004>006-009-010-012-RIZ004-006-007-MAZ004-011-015-191900- SOUTHERN NEW ENGLAND IN CT CITY SKY/WX TMP DP RH WIND PRES REMARKS Bradley INTL PTSUNNY 46 29 51 W15G35 29.40R Hartford PTSUNNY 49 30 48 W29G38 29.39R Danbury MOSUNNY 46 30 53 W13G26 29.46R Wtrbury/Oxford PTSUNNY 45 30 55 W16G35 29.41R Norwalk Harbor NOT AVBL Bridgeport PTSUNNY 50 30 46 W25G40 29.42R Meriden MOSUNNY 49 30 48 W20G30 29.40R New Haven PTSUNNY 50 31 48 W15G28 29.42R Chester MOCLDY 52 30 43 W16G31 29.37R Groton PTSUNNY 52 36 54 NW16G30 29.34R Wilimantic MOSUNNY 49 31 49 W26G37 29.36R IN RI CITY SKY/WX TMP DP RH WIND PRES REMARKS Providence MOSUNNY 52 38 58 W25G37 29.29R Block Island CLOUDY 52 41 66 W25G36 29.33R Westerly CLOUDY 53 38 56 W16G29 29.33R IN MA CITY SKY/WX TMP DP RH WIND PRES REMARKS Boston MOSUNNY 49 36 61 W21G39 29.21R Worcester MOSUNNY 42 28 57 W33G46 29.25R Westfield CLOUDY 44 30 57 NW28G37 29.38R Provincetown LGT RAIN 54 47 77 W24G35 29.19R Nantucket MOSUNNY 56 47 71 W29G45 29.25R $$ ANZ330-335-338-340-345-350-353-355-191900- COASTAL MARINE OBSERVATIONS STATION/POSITION TIME SKY/WX TEMP WIND PRES VSBY WAVE AIR SEA DIR/SP/G HT/PER (UTC) (F) (DEG/KT/KT) (MB) (MI) (FT/S) NY HARB ENTRANCE 1650 52 58 290/ 29/ 37 996.6 7/ 9 20 S FIRE ISLAND 1650 52 58 290/ 29/ 35 996.4 13/ 6 GREAT SOUTH BAY 1730 49 48 300/ 23/ 27 N/A HUDSON CANYON 1650 54 60 290/ 31/ 37 996.5 13/ 9 KINGS POINT 1730 49 52 350/ 26/ 32 999.5 EXECUTION ROCKS 1715 50 270/ 23/ 35 N/A WESTERN LI SOUND 1649 49 290/ 23/ 39 N/A 3/ 4 CENTRAL LI SOUND NOT AVBL ROBBINS REEF 1730 50 290/ 33/ 38 999.3 $$ >>>>>>>>>>>>>>>>>>>>>>>>>>>> KEY <<<<<<<<<<<<<<<<<<<<<<<<<<< > < > SKY/WX - Sky Condition/Present Weather < > TMP - Temperature in Fahrenheit < > DP - Dew Point in Fahrenheit < > RH - Relative Humidity in Percent < > WIND - Direction (from) and Speed in MPH < > PRES - Mean Sea Level Pressure (inches of Hg) < > WCI - Wind Chill Index < > VSB - VISIBILITY IN MILES < > HX - HEAT INDEX < > TC - TEMPERATURE IN CELSIUS < > VRB - VARIABLE WIND DIRECTION < > < >>>>>>>>>>>>>>>>>>>>>>>>>>>> KEY <<<<<<<<<<<<<<<<<<<<<<<<<<<

USA.gov is the U.S. government's official web portal to all federal, state and local government web resources and services.